Orbital Elements at Epoch 2459200.5 (2020-Dec-17.0) TDB
Reference: JPL 17 (heliocentric ecliptic J2000)
Element | Value | Uncertainty (1-sigma) | Units |
e | .1228380014814603 | 5.7664e-08 | |
a | 2.446328456160026 | 1.7131e-08 | au |
q | 2.145826357638102 | 1.3642e-07 | au |
i | 3.088773664257196 | 6.5862e-06 | deg |
node | 15.72938911088595 | 7.0076e-05 | deg |
peri | 138.3332768692367 | 7.6353e-05 | deg |
M | 228.7004592895196 | 3.6626e-05 | deg |
tp | 2459710.219541441859 (2022-May-10.71954144) | 0.00014644 | TDB |
period | 1397.560371697647 3.83 | 1.468e-05 4.019e-08 | d yr |
n | .2575917343468319 | 2.7058e-09 | deg/d |
Q | 2.74683055468195 | 1.9236e-08 | au |
|
| | Orbit Determination Parameters
Additional Information
|